Terug naar catalogus

SL-8 R/B

ActiefPO
NORAD 17067·ROCKET BODY·🇷🇺 Russia

Gelanceerd Nov 13, 1986 vanaf Plesetsk Cosmodrome

Loading…

Volgende Passages (komende 24 uur)

TLE

VersSource: Space-Track

Epoch: Sep 14, 2026, 16:43 UTC

1 17067U 86086B   26257.69694828  .00000075  00000-0  58929-4 0  9992
2 17067  82.9467 158.4289 0032962 228.8147 158.5731 13.78106588  2683

Volg SL-8 R/B in realtime met AllMySat

Download on the App Store